SKW1375 KEWR-KPIT

Flight info

Callsign SKW1375
Flight time N/A
Altitude 36000
Route ZIMMZ Q42 MIKYG Q480 VINSE DEMME5
Aircraft CRJ7/M-SDFGIRWY/S

Departure

Time 2026-04-22 22:07
Airport Newark Liberty International Airport (KEWR)

Arrival

Time N/A
Airport Pittsburgh International Airport (KPIT)
Time Latitude Longitude Altitude Speed Heading
2026-04-22 21:50 40.69441 -74.17230 15 ft 0 kts 233°
2026-04-22 21:50 40.69441 -74.17231 15 ft 0 kts 233°
2026-04-22 21:57 40.69440 -74.17231 15 ft 0 kts 233°
2026-04-22 22:00 40.69450 -74.17214 15 ft 3 kts 233°
2026-04-22 22:00 40.69462 -74.17194 16 ft 3 kts 233°
2026-04-22 22:00 40.69471 -74.17178 19 ft 0 kts 233°
2026-04-22 22:01 40.69467 -74.17182 17 ft 1 kts 211°
2026-04-22 22:02 40.69455 -74.17176 15 ft 4 kts 119°
2026-04-22 22:02 40.69460 -74.17110 18 ft 8 kts 55°
2026-04-22 22:02 40.69501 -74.17070 17 ft 8 kts 39°
2026-04-22 22:02 40.69529 -74.16987 17 ft 13 kts 97°
2026-04-22 22:03 40.69512 -74.16866 18 ft 14 kts 62°
2026-04-22 22:03 40.69596 -74.16796 18 ft 15 kts 26°
2026-04-22 22:03 40.69694 -74.16734 16 ft 17 kts 26°
2026-04-22 22:03 40.69808 -74.16662 13 ft 20 kts 26°
2026-04-22 22:04 40.69933 -74.16582 14 ft 20 kts 25°
2026-04-22 22:04 40.70062 -74.16501 13 ft 21 kts 25°
2026-04-22 22:04 40.70183 -74.16467 16 ft 14 kts
2026-04-22 22:04 40.70273 -74.16426 17 ft 14 kts 62°
2026-04-22 22:05 40.70278 -74.16396 18 ft 1 kts 89°
2026-04-22 22:05 40.70278 -74.16382 16 ft 3 kts 89°
2026-04-22 22:05 40.70276 -74.16321 17 ft 10 kts 96°
2026-04-22 22:05 40.70225 -74.16240 16 ft 16 kts 189°
2026-04-22 22:06 40.70060 -74.16346 14 ft 51 kts 206°
2026-04-22 22:06 40.69547 -74.16671 20 ft 108 kts 205°
2026-04-22 22:06 40.68734 -74.17187 46 ft 147 kts 204°
2026-04-22 22:06 40.67779 -74.17819 435 ft 157 kts 205°
2026-04-22 22:07 40.66797 -74.18484 1010 ft 167 kts 206°
2026-04-22 22:07 40.65649 -74.19247 1231 ft 204 kts 206°
2026-04-22 22:07 40.64300 -74.20125 1766 ft 227 kts 206°
2026-04-22 22:07 40.62923 -74.21276 2404 ft 243 kts 227°
2026-04-22 22:08 40.62045 -74.23204 3219 ft 248 kts 253°
2026-04-22 22:08 40.61756 -74.25442 4207 ft 248 kts 272°
2026-04-22 22:08 40.61995 -74.27695 5136 ft 249 kts 283°
2026-04-22 22:08 40.62382 -74.29940 6050 ft 252 kts 286°
2026-04-22 22:09 40.62846 -74.32150 6954 ft 254 kts 289°
2026-04-22 22:09 40.63364 -74.34392 7835 ft 256 kts 289°
2026-04-22 22:09 40.63893 -74.36647 8715 ft 258 kts 289°
2026-04-22 22:09 40.64430 -74.38912 9574 ft 260 kts 289°
2026-04-22 22:10 40.64951 -74.41206 10341 ft 265 kts 288°
2026-04-22 22:10 40.65494 -74.43638 10619 ft 287 kts 288°
2026-04-22 22:10 40.66062 -74.46215 10988 ft 304 kts 288°
2026-04-22 22:10 40.66662 -74.48947 11583 ft 312 kts 288°
2026-04-22 22:11 40.67267 -74.51716 12327 ft 316 kts 288°
2026-04-22 22:11 40.67881 -74.54519 13097 ft 320 kts 288°
2026-04-22 22:11 40.68498 -74.57349 13823 ft 323 kts 288°
2026-04-22 22:11 40.69124 -74.60219 14499 ft 326 kts 288°
2026-04-22 22:12 40.69744 -74.63069 15159 ft 328 kts 288°
2026-04-22 22:12 40.70376 -74.65979 15826 ft 331 kts 288°
2026-04-22 22:12 40.71011 -74.68909 16482 ft 333 kts 288°
2026-04-22 22:12 40.71651 -74.71857 17115 ft 336 kts 288°
2026-04-22 22:13 40.72297 -74.74839 17735 ft 338 kts 288°
2026-04-22 22:13 40.72945 -74.77841 18345 ft 341 kts 288°
2026-04-22 22:13 40.73598 -74.80861 18867 ft 343 kts 288°
2026-04-22 22:13 40.74252 -74.83903 19377 ft 346 kts 288°
2026-04-22 22:14 40.74906 -74.86936 19869 ft 348 kts 288°
2026-04-22 22:14 40.75572 -74.90034 20353 ft 351 kts 288°
2026-04-22 22:14 40.76241 -74.93146 20838 ft 353 kts 288°
2026-04-22 22:14 40.76912 -74.96287 21303 ft 356 kts 288°
2026-04-22 22:15 40.77580 -74.99406 21745 ft 359 kts 288°
2026-04-22 22:15 40.78258 -75.02591 22178 ft 361 kts 288°
2026-04-22 22:15 40.78944 -75.05797 22598 ft 364 kts 288°
2026-04-22 22:15 40.79637 -75.09027 23033 ft 366 kts 288°
2026-04-22 22:16 40.80025 -75.12377 23413 ft 375 kts 273°
2026-04-22 22:16 40.79850 -75.15797 23771 ft 380 kts 268°
2026-04-22 22:16 40.79430 -75.19278 24091 ft 385 kts 264°
2026-04-22 22:16 40.78871 -75.22761 24410 ft 388 kts 263°
2026-04-22 22:17 40.78299 -75.26252 24732 ft 390 kts 263°
2026-04-22 22:17 40.77734 -75.29757 25035 ft 391 kts 264°
2026-04-22 22:17 40.77218 -75.33243 25336 ft 393 kts 264°
2026-04-22 22:17 40.76676 -75.36790 25626 ft 397 kts 262°
2026-04-22 22:18 40.75791 -75.40296 25902 ft 404 kts 254°
2026-04-22 22:18 40.74643 -75.43717 26169 ft 410 kts 250°
2026-04-22 22:18 40.73338 -75.47082 26439 ft 413 kts 249°
2026-04-22 22:18 40.71999 -75.50449 26691 ft 416 kts 249°
2026-04-22 22:19 40.70678 -75.53857 26943 ft 417 kts 250°
2026-04-22 22:19 40.69413 -75.57254 27199 ft 418 kts 250°
2026-04-22 22:19 40.68124 -75.60700 27463 ft 420 kts 250°
2026-04-22 22:19 40.66825 -75.64168 27713 ft 422 kts 250°
2026-04-22 22:20 40.65517 -75.67650 27937 ft 424 kts 250°
2026-04-22 22:20 40.64204 -75.71143 28166 ft 425 kts 250°
2026-04-22 22:20 40.62887 -75.74640 28436 ft 426 kts 250°
2026-04-22 22:20 40.61586 -75.78094 28730 ft 426 kts 250°
2026-04-22 22:21 40.60262 -75.81587 29033 ft 426 kts 250°
2026-04-22 22:21 40.58943 -75.85078 29302 ft 425 kts 250°
2026-04-22 22:21 40.57620 -75.88572 29585 ft 425 kts 250°
2026-04-22 22:21 40.56294 -75.92055 29878 ft 425 kts 250°
2026-04-22 22:22 40.54987 -75.95495 30147 ft 424 kts 250°
2026-04-22 22:22 40.53661 -75.98974 30387 ft 424 kts 250°
2026-04-22 22:22 40.52339 -76.02440 30638 ft 423 kts 250°
2026-04-22 22:22 40.51016 -76.05907 30872 ft 422 kts 250°
2026-04-22 22:23 40.49715 -76.09311 31104 ft 421 kts 250°
2026-04-22 22:23 40.48394 -76.12758 31311 ft 421 kts 250°
2026-04-22 22:23 40.47076 -76.16198 31538 ft 420 kts 250°
2026-04-22 22:23 40.45761 -76.19623 31770 ft 419 kts 250°
2026-04-22 22:24 40.44446 -76.23047 31971 ft 418 kts 250°
2026-04-22 22:24 40.43136 -76.26454 32171 ft 418 kts 250°
2026-04-22 22:24 40.41838 -76.29828 32374 ft 417 kts 250°
2026-04-22 22:24 40.40526 -76.33234 32584 ft 416 kts 250°
2026-04-22 22:25 40.39655 -76.35486 32710 ft 416 kts 250°
2026-04-22 22:25 40.37924 -76.39967 32975 ft 415 kts 250°
2026-04-22 22:25 40.36617 -76.43347 33173 ft 414 kts 250°
2026-04-22 22:25 40.35313 -76.46717 33352 ft 414 kts 250°
2026-04-22 22:26 40.34445 -76.48948 33480 ft 413 kts 250°
2026-04-22 22:26 40.33137 -76.52307 33645 ft 413 kts 250°
2026-04-22 22:26 40.31823 -76.55661 33831 ft 412 kts 250°
2026-04-22 22:26 40.30492 -76.58998 34005 ft 412 kts 249°
2026-04-22 22:27 40.29152 -76.62326 34136 ft 412 kts 249°
2026-04-22 22:27 40.27829 -76.65606 34269 ft 412 kts 249°
2026-04-22 22:27 40.26492 -76.68930 34399 ft 412 kts 249°
2026-04-22 22:27 40.25158 -76.72255 34528 ft 411 kts 249°
2026-04-22 22:28 40.23822 -76.75583 34658 ft 411 kts 249°
2026-04-22 22:28 40.22488 -76.78902 34759 ft 411 kts 249°
2026-04-22 22:28 40.21169 -76.82171 34894 ft 411 kts 249°
2026-04-22 22:28 40.19832 -76.85485 35026 ft 411 kts 249°
2026-04-22 22:29 40.18493 -76.88797 35152 ft 411 kts 249°
2026-04-22 22:29 40.17155 -76.92107 35254 ft 411 kts 249°
2026-04-22 22:29 40.15821 -76.95403 35397 ft 410 kts 249°
2026-04-22 22:29 40.14486 -76.98697 35527 ft 410 kts 249°
2026-04-22 22:30 40.13149 -77.01991 35624 ft 410 kts 249°
2026-04-22 22:30 40.11812 -77.05282 35758 ft 410 kts 249°
2026-04-22 22:30 40.10476 -77.08574 35838 ft 410 kts 249°
2026-04-22 22:31 40.07801 -77.15141 35932 ft 410 kts 249°
2026-04-22 22:31 40.05118 -77.21704 35966 ft 410 kts 249°
2026-04-22 22:32 40.02422 -77.28313 35991 ft 413 kts 249°
2026-04-22 22:32 39.99730 -77.34870 35997 ft 411 kts 248°
2026-04-22 22:33 39.97307 -77.41552 35988 ft 397 kts 262°
2026-04-22 22:33 39.96335 -77.48567 35992 ft 395 kts 267°
2026-04-22 22:34 39.95764 -77.55642 35994 ft 387 kts 275°
2026-04-22 22:34 39.96053 -77.62580 35987 ft 384 kts 278°
2026-04-22 22:35 39.96386 -77.69557 35985 ft 386 kts 277°
2026-04-22 22:35 39.96593 -77.76566 35983 ft 386 kts 277°
2026-04-22 22:36 39.96801 -77.83574 35959 ft 387 kts 277°
2026-04-22 22:36 39.97007 -77.90536 35981 ft 386 kts 277°
2026-04-22 22:37 39.97213 -77.97555 35988 ft 388 kts 276°
2026-04-22 22:37 39.97399 -78.04594 35998 ft 388 kts 276°
2026-04-22 22:37 39.97497 -78.08078 35768 ft 394 kts 276°
2026-04-22 22:38 39.97591 -78.11635 35240 ft 389 kts 276°
2026-04-22 22:38 39.97686 -78.15149 34705 ft 383 kts 276°
2026-04-22 22:38 39.97779 -78.18610 34232 ft 382 kts 276°
2026-04-22 22:38 39.97871 -78.22090 33722 ft 385 kts 276°
2026-04-22 22:39 39.97960 -78.25557 33202 ft 388 kts 276°
2026-04-22 22:39 39.98052 -78.29093 32648 ft 390 kts 276°
2026-04-22 22:39 39.98142 -78.32656 32105 ft 392 kts 276°
2026-04-22 22:39 39.98231 -78.36223 31572 ft 393 kts 276°
2026-04-22 22:40 39.98320 -78.39765 31060 ft 395 kts 276°
2026-04-22 22:40 39.98408 -78.43358 30544 ft 396 kts 276°
2026-04-22 22:40 39.98494 -78.46940 30040 ft 392 kts 276°
2026-04-22 22:40 39.98575 -78.50473 29450 ft 385 kts 276°
2026-04-22 22:41 39.98657 -78.53894 28865 ft 379 kts 276°
2026-04-22 22:41 39.98737 -78.57309 28302 ft 373 kts 276°
2026-04-22 22:41 39.98813 -78.60690 27745 ft 368 kts 276°
2026-04-22 22:41 39.98889 -78.64018 27199 ft 364 kts 276°
2026-04-22 22:42 39.98962 -78.67271 26672 ft 361 kts 276°
2026-04-22 22:42 39.99033 -78.70536 26154 ft 358 kts 276°
2026-04-22 22:42 39.99103 -78.73771 25614 ft 355 kts 276°
2026-04-22 22:42 39.99173 -78.76984 25116 ft 352 kts 276°
2026-04-22 22:43 39.99240 -78.80131 24629 ft 350 kts 276°
2026-04-22 22:43 39.99307 -78.83298 24152 ft 348 kts 275°
2026-04-22 22:43 39.99372 -78.86455 23671 ft 347 kts 276°
2026-04-22 22:43 39.99438 -78.89601 23123 ft 345 kts 276°
2026-04-22 22:44 39.99498 -78.92697 22562 ft 344 kts 275°